Find Starlink 37811

NORAD ID: 100296 Int'l Des: 2026-183 Owner: SPXS Country: US Constellation: starlink operational

現在のビュー

3D地球を読み込み中...

About Starlink 37811

Starlink 37811 (NORAD 100296) is a starlink constellation satellite launched Aug 11, 2026 by SPXS of US. with a mass of 575.00 kg.

次回通過

Passes for default location (London). Set your location on the main map for personalized predictions.

高度履歴

Loading altitude history...

軌道要素

1 A0296U 26183AA 26263.48044336 .00029291 00000-0 53213-3 0 9998
2 A0296 53.1587 258.7000 0001467 84.7685 275.3491 15.49341523 6280
Epoch: Sep 20, 2026 • Age: 8 hours

現在のステータス

高度 422.8 km
遠地点 / 近地点 N/A
速度 7.66 km/s
衛星直下点 46.82°N, 88.33°E
打ち上げ日 Aug 11, 2026
運用期間 0.1 years
タイプ internet

技術仕様

分類 Payload
質量 575.00 kg
乾燥質量 530.00 kg
長さ 0.30 m
スパン 29.00 m
形状 ? Box + pan
製造者 SPXS
バスタイプ Starlink V2MO
フェーズステータス In Orbit
所有者/国 SPXS/US

Most Searched